(155624) = 2000 EO180

Discovered at Socorro on 2000-03-04 by LINEAR.

Orbit

Orbit type: Main Belt

Note: WebGL enabled browser required.

epoch2023-09-13.0
epoch JD2460200.5
perihelion date2021-07-29.90746
perihelion JD2459425.40746
argument of perihelion (°)345.30445
ascending node (°)60.04257
inclination (°)6.61192
eccentricity0.1055131
perihelion distance (AU)1.9359594
Tisserand w.r.t. Jupiter3.7
ΔV w.r.t. Earth (km/sec)8.8
semimajor axis (AU)2.1643239
mean anomaly (°)239.92419
mean daily motion (°/day)0.30954260
aphelion distance (AU)2.393
period (years)3.18
P-vector [x]0.70134936
P-vector [y]0.66506720
P-vector [z]0.25650477
Q-vector [x]-0.70580236
Q-vector [y]0.59756584
Q-vector [z]0.38047089
absolute magnitude16.12
phase slope0.15
uncertainty0
referenceMPEC 2024-A12
observations used852
oppositions16
arc length (days)9579
first opposition used1997
last opposition used2023
residual rms (arc-secs)0.67
perturbers coarse indicatorM-v
perturbers precise indicator003Ek
first observation date used1997-04-15.0
last observation date used2023-07-07.0
computer nameMPCLINUX
JD of orbit computation2456937.447997
perihelion JD uncertainty (days)5.4453E-05
argument of perihelion uncertainty (°)3.0122E-05
ascending node uncertainty (°)2.6065E-05
inclination uncertainty (°)2.9559E-06
eccentricity uncertainty 5.2332E-08
perihelion distance uncertainty (AU)1.2254E-07
Minimum Orbit Intersection Distances (in AU)
for orbit epoch: 2460200.5, reference: E2024-A12
Mercury1.61436
Venus1.2129
Earth0.94535
Mars0.42412
Jupiter2.92927
Saturn7.03988
Uranus16.1637
Neptune27.8894

Observations

858 total observations over interval: 1997 04 15.35579 – 2023 07 07.358569
These data are available for download (format description).

Date (UT) J2000 RA J2000 Dec Magn Location Ref
1997 04 15.35579 11 56 08.77 +09 52 20.4 19.4 V 691 – Steward Observatory, Kitt Peak-Spacewatch MPS 155161
1997 04 15.36407 11 56 08.38 +09 52 20.5 19.4 V 691 – Steward Observatory, Kitt Peak-Spacewatch MPS 155161
1997 04 15.37249 11 56 08.00 +09 52 20.5 19.7 V 691 – Steward Observatory, Kitt Peak-Spacewatch MPS 155161
2000 02 03.30664 11 04 39.86 +18 18 01.9 18.9   704 – Lincoln Laboratory ETS, New Mexico MPS 34221
2000 02 03.32091 11 04 39.14 +18 18 08.4 20.0   704 – Lincoln Laboratory ETS, New Mexico MPS 34221
2000 02 03.34976 11 04 37.86 +18 18 21.7 19.5   704 – Lincoln Laboratory ETS, New Mexico MPS 34221
2000 02 03.36403 11 04 37.20 +18 18 27.1 18.9   704 – Lincoln Laboratory ETS, New Mexico MPS 34221
2000 02 06.45610 11 02 14.94 +18 41 38.7 19.9 R 703 – Catalina Sky Survey MPS 34221
2000 02 06.46777 11 02 14.17 +18 41 45.6 19.3 R 703 – Catalina Sky Survey MPS 34221
2000 02 06.47942 11 02 13.71 +18 41 49.7 19.1 R 703 – Catalina Sky Survey MPS 34221
2000 02 06.49110 11 02 13.05 +18 41 57.0 18.7 R 703 – Catalina Sky Survey MPS 34221
2000 03 04.30697 10 34 25.73 +21 33 02.3 19.1   704 – Lincoln Laboratory ETS, New Mexico MPS 16929
2000 03 04.32021 10 34 24.80 +21 33 04.5 19.2   704 – Lincoln Laboratory ETS, New Mexico MPS 16929
2000 03 04.33345 10 34 23.87 +21 33 07.5 19.8   704 – Lincoln Laboratory ETS, New Mexico MPS 16929
2000 03 04.34669 10 34 23.00 +21 33 10.7 19.1   704 – Lincoln Laboratory ETS, New Mexico MPS 16929
2000 03 04.35994 10 34 22.08 +21 33 14.0 19.4   704 – Lincoln Laboratory ETS, New Mexico MPS 16929
2000 03 12.27015 10 26 16.85 +21 57 10.6 19.1   704 – Lincoln Laboratory ETS, New Mexico MPS 16929
2000 03 12.28299 10 26 16.13 +21 57 11.3 19.2   704 – Lincoln Laboratory ETS, New Mexico MPS 16929
2000 03 12.29572 10 26 15.33 +21 57 13.6 19.3   704 – Lincoln Laboratory ETS, New Mexico MPS 16929
2000 03 12.30860 10 26 14.56 +21 57 14.2 19.9   704 – Lincoln Laboratory ETS, New Mexico MPS 16929
2000 03 12.32151 10 26 13.79 +21 57 16.2 19.7   704 – Lincoln Laboratory ETS, New Mexico MPS 16929
2002 11 21.48132 08 57 24.76 +23 35 41.3 19.0   644 – Palomar Mountain/NEAT MPS 81377
2002 11 21.49174 08 57 25.31 +23 35 42.7 19.4   644 – Palomar Mountain/NEAT MPS 81377
2002 11 21.50231 08 57 25.83 +23 35 44.1 19.7   644 – Palomar Mountain/NEAT MPS 81377
2002 12 11.44953 09 08 09.63 +24 44 17.1 19.0   704 – Lincoln Laboratory ETS, New Mexico MPS 81377
2002 12 11.46501 09 08 09.67 +24 44 22.7 19.5   704 – Lincoln Laboratory ETS, New Mexico MPS 81377
2002 12 11.49598 09 08 09.80 +24 44 32.3 19.9   704 – Lincoln Laboratory ETS, New Mexico MPS 81377
2002 12 11.51151 09 08 10.02 +24 44 38.0 19.2   704 – Lincoln Laboratory ETS, New Mexico MPS 81377
2002 12 11.54362 09 08 10.35 +24 44 47.1 19.8   644 – Palomar Mountain/NEAT MPS 81377
2002 12 11.55425 09 08 10.43 +24 44 50.2 19.3   644 – Palomar Mountain/NEAT MPS 81377
2002 12 11.56690 09 08 10.57 +24 44 53.6 19.4   644 – Palomar Mountain/NEAT MPS 81377
2003 01 05.30440 09 00 08.24 +27 36 09.1 18.3 R 699 – Lowell Observatory-LONEOS MPS 73742
2003 01 05.31508 09 00 07.64 +27 36 14.8   699 – Lowell Observatory-LONEOS MPS 73742
2003 01 05.32578 09 00 07.05 +27 36 20.1   699 – Lowell Observatory-LONEOS MPS 73742
2003 01 05.33643 09 00 06.58 +27 36 24.3   699 – Lowell Observatory-LONEOS MPS 73742
2003 01 10.37449 08 55 36.10 +28 16 28.2 18.7   704 – Lincoln Laboratory ETS, New Mexico MPS 73742
2003 01 10.39063 08 55 35.10 +28 16 36.0 19.1   704 – Lincoln Laboratory ETS, New Mexico MPS 73742
2003 01 10.40687 08 55 34.07 +28 16 43.5 19.4   704 – Lincoln Laboratory ETS, New Mexico MPS 73742
2003 01 10.42491 08 55 32.97 +28 16 50.9 19.5   704 – Lincoln Laboratory ETS, New Mexico MPS 73742
2003 01 10.44149 08 55 31.95 +28 16 58.5 19.3   704 – Lincoln Laboratory ETS, New Mexico MPS 73742
2003 01 25.221310 08 38 51.635 +30 00 40.96 18.34 V 645 – Apache Point-Sloan Digital Sky Survey MPS 79662
2003 01 25.224782 08 38 51.371 +30 00 42.19 19.29   645 – Apache Point-Sloan Digital Sky Survey MPS 79662
2003 01 25.256400 08 38 48.971 +30 00 53.45 18.94 V 645 – Apache Point-Sloan Digital Sky Survey MPS 79662
2003 01 25.259872 08 38 48.708 +30 00 54.66 19.87   645 – Apache Point-Sloan Digital Sky Survey MPS 79662
2003 01 31.27591 08 31 30.17 +30 31 36.7 18.7   704 – Lincoln Laboratory ETS, New Mexico MPS 73097
2003 01 31.29072 08 31 29.08 +30 31 41.2 18.5   704 – Lincoln Laboratory ETS, New Mexico MPS 73097
2003 01 31.30552 08 31 27.96 +30 31 44.9 19.0   704 – Lincoln Laboratory ETS, New Mexico MPS 73097
2003 01 31.32051 08 31 26.78 +30 31 48.4 18.7   704 – Lincoln Laboratory ETS, New Mexico MPS 73097
2003 01 31.33551 08 31 25.72 +30 31 52.5 19.0   704 – Lincoln Laboratory ETS, New Mexico MPS 73097
2003 02 06.25655 08 24 35.50 +30 53 18.0 18.4 R 699 – Lowell Observatory-LONEOS MPS 73097
2003 02 06.27273 08 24 34.36 +30 53 20.7   699 – Lowell Observatory-LONEOS MPS 73097
2003 02 06.28893 08 24 33.22 +30 53 23.3   699 – Lowell Observatory-LONEOS MPS 73097
2003 02 06.30511 08 24 31.95 +30 53 25.8   699 – Lowell Observatory-LONEOS MPS 73097
2003 02 26.22053 08 08 31.37 +31 02 13.7 19.4   704 – Lincoln Laboratory ETS, New Mexico MPS 73742
2003 02 26.23341 08 08 31.03 +31 02 12.1 19.5   704 – Lincoln Laboratory ETS, New Mexico MPS 73742
2003 02 26.24631 08 08 30.65 +31 02 10.8 19.4   704 – Lincoln Laboratory ETS, New Mexico MPS 73742
2003 02 26.25934 08 08 30.23 +31 02 09.4 19.2   704 – Lincoln Laboratory ETS, New Mexico MPS 73742
2003 03 07.22107 08 06 05.98 +30 40 03.0 19.1   644 – Palomar Mountain/NEAT MPS 73742
2003 03 07.23160 08 06 05.87 +30 40 01.1 19.2   644 – Palomar Mountain/NEAT MPS 73742
2003 03 07.24202 08 06 05.82 +30 39 58.9 19.1   644 – Palomar Mountain/NEAT MPS 73742
2003 03 25.17003 08 10 22.27 +29 24 24.8 19.3   704 – Lincoln Laboratory ETS, New Mexico MPS 75667
2003 03 25.18157 08 10 22.59 +29 24 20.3 19.8   704 – Lincoln Laboratory ETS, New Mexico MPS 75667
2003 03 25.19301 08 10 22.89 +29 24 16.8 20.1   704 – Lincoln Laboratory ETS, New Mexico MPS 75667
2005 11 28.30663 06 21 36.15 +27 45 41.6 18.6   704 – Lincoln Laboratory ETS, New Mexico MPS 151798
2005 11 28.32041 06 21 35.32 +27 45 47.2 18.7   704 – Lincoln Laboratory ETS, New Mexico MPS 151798
2005 11 28.33371 06 21 34.79 +27 45 52.8 18.1   704 – Lincoln Laboratory ETS, New Mexico MPS 151798
2005 11 28.34729 06 21 34.14 +27 45 58.1 18.4   704 – Lincoln Laboratory ETS, New Mexico MPS 151798
2005 11 28.36069 06 21 33.44 +27 46 02.6 18.9   704 – Lincoln Laboratory ETS, New Mexico MPS 151798
2005 12 02.35058 06 18 08.23 +28 10 18.4 18.6   704 – Lincoln Laboratory ETS, New Mexico MPS 153371
2005 12 02.36360 06 18 07.39 +28 10 23.5 19.1   704 – Lincoln Laboratory ETS, New Mexico MPS 153371
2005 12 02.37667 06 18 06.64 +28 10 27.8 18.7   704 – Lincoln Laboratory ETS, New Mexico MPS 153371
2005 12 02.39012 06 18 05.87 +28 10 32.9 18.7   704 – Lincoln Laboratory ETS, New Mexico MPS 153371
2005 12 05.30914 06 15 14.00 +28 27 54.8 18.5   704 – Lincoln Laboratory ETS, New Mexico MPS 153371
2005 12 05.32198 06 15 13.20 +28 27 59.0 18.5   704 – Lincoln Laboratory ETS, New Mexico MPS 153371
2005 12 05.33499 06 15 12.34 +28 28 03.7 18.4   704 – Lincoln Laboratory ETS, New Mexico MPS 153371
2005 12 05.34797 06 15 11.50 +28 28 08.1 18.4   704 – Lincoln Laboratory ETS, New Mexico MPS 153371
2005 12 05.36094 06 15 10.64 +28 28 13.1 18.5   704 – Lincoln Laboratory ETS, New Mexico MPS 153371
2005 12 10.34097 06 09 41.55 +28 56 31.2 18.1 V 691 – Steward Observatory, Kitt Peak-Spacewatch MPS 155161
2005 12 10.35841 06 09 40.28 +28 56 36.9 18.2 V 691 – Steward Observatory, Kitt Peak-Spacewatch MPS 155161
2005 12 10.37594 06 09 38.98 +28 56 42.5 18.7 V 691 – Steward Observatory, Kitt Peak-Spacewatch MPS 155161
2005 12 29.26145 05 46 03.21 +30 15 44.2 18.0   704 – Lincoln Laboratory ETS, New Mexico MPS 156362
2005 12 29.27451 05 46 02.24 +30 15 48.3 18.8   704 – Lincoln Laboratory ETS, New Mexico MPS 156362
2005 12 29.28780 05 46 01.20 +30 15 48.1 18.5   704 – Lincoln Laboratory ETS, New Mexico MPS 156362
2005 12 29.30094 05 46 00.25 +30 15 50.6 18.5   704 – Lincoln Laboratory ETS, New Mexico MPS 156362
